Historique des stations

Station météo de Yvoy-le-Marron

Altitude de la station : 130 m







Données météorologiques pour le 28/09/2022
Date
Heure
Températures Humidité Point de rosée Vitesse
du vent
Direction Rafales Windchill Pression Pluviométrie
Cumul
Date
Heure
Températures Humidité Point de rosée Vitesse
du vent
Direction Rafales Windchill Pression Pluviométrie
Cumul
28/09/2022 10:5011.8 °C97 %11.1 °C3 km/hNNE6 km/h11.7 1001 hPa13.6 mm
28/09/2022 10:4611.7 °C97 %11.1 °C3 km/hNO18 km/h11.7 1001 hPa13.6 mm
28/09/2022 10:3511.6 °C96 %11.1 °C2 km/hN5 km/h11.7 1001 hPa13.6 mm
28/09/2022 10:3111.6 °C97 %11.1 °C-ONO18 km/h11.7 1001 hPa13.6 mm
28/09/2022 10:1911.6 °C97 %11.1 °C2 km/hNNO6 km/h11.7 1001 hPa13.6 mm
28/09/2022 10:1611.6 °C97 %11.1 °C-ONO18 km/h11.7 1001 hPa13.6 mm
28/09/2022 10:0511.6 °C97 %11.1 °C2 km/hN5 km/h11.7 1001 hPa13.6 mm
28/09/2022 10:0111.6 °C97 %11.1 °C2 km/hNNE18 km/h11.7 1001 hPa13.6 mm
28/09/2022 09:5011.4 °C97 %11.1 °C3 km/hN8 km/h11.7 1001 hPa13.6 mm
28/09/2022 09:4611.4 °C97 %11.1 °C6 km/hN18 km/h11.7 1000 hPa13.6 mm
28/09/2022 09:3911.4 °C97 %11.1 °C-NNE6 km/h11.7 1000 hPa13.6 mm
28/09/2022 09:1611.3 °C97 %11.1 °C2 km/hO18 km/h11.1 1000 hPa13.4 mm
28/09/2022 09:0111.2 °C97 %10.6 °C-NNO18 km/h11.1 1000 hPa13.4 mm
28/09/2022 07:3111.5 °C97 %11.1 °C-N18 km/h11.7 999 hPa11.6 mm
28/09/2022 07:1611.6 °C97 %11.1 °C2 km/hNNO18 km/h11.7 999 hPa11.4 mm
28/09/2022 07:0511.6 °C97 %11.1 °C5 km/hNO5 km/h11.7 999 hPa11.2 mm
28/09/2022 07:0111.6 °C97 %11.1 °C-NO18 km/h11.7 999 hPa11 mm
28/09/2022 06:1611.6 °C97 %11.1 °C-NO18 km/h11.7 999 hPa10.6 mm
28/09/2022 06:0511.6 °C96 %11.1 °C---11.7 999 hPa10.6 mm
28/09/2022 06:0111.7 °C97 %11.1 °C-NO18 km/h11.7 1000 hPa10.4 mm
28/09/2022 05:5011.7 °C97 %11.1 °C---11.7 999 hPa10.2 mm
28/09/2022 05:4611.7 °C96 %11.1 °C-NO18 km/h11.7 1000 hPa10.2 mm
28/09/2022 05:3511.7 °C96 %11.1 °C3 km/hONO5 km/h11.7 999 hPa10 mm
28/09/2022 05:3111.7 °C97 %11.1 °C-ONO18 km/h11.7 999 hPa9.8 mm
28/09/2022 05:2011.6 °C97 %11.1 °C2 km/hONO5 km/h11.7 999 hPa9.6 mm
28/09/2022 05:1611.7 °C97 %11.1 °C-NNO18 km/h11.7 999 hPa9.6 mm
28/09/2022 05:0511.7 °C96 %11.1 °C2 km/hNNO5 km/h11.7 999 hPa9.2 mm
28/09/2022 05:0111.7 °C96 %11.1 °C3 km/hNNO18 km/h11.7 999 hPa9.2 mm
28/09/2022 04:5011.7 °C96 %11.1 °C-NO8 km/h11.7 999 hPa9 mm
28/09/2022 04:4611.8 °C96 %11.1 °C5 km/hNNO18 km/h11.7 999 hPa8.8 mm
28/09/2022 04:3511.9 °C96 %11.1 °C3 km/hNNO5 km/h11.7 999 hPa8.6 mm
28/09/2022 04:3111.9 °C96 %11.1 °C-NNO18 km/h11.7 999 hPa8.6 mm
28/09/2022 04:1911.9 °C96 %11.1 °C3 km/hN10 km/h12.2 1000 hPa8.6 mm
28/09/2022 04:1511.9 °C96 %11.1 °C5 km/hNNO18 km/h12.2 1000 hPa8.6 mm
28/09/2022 04:0412.0 °C96 %11.7 °C8 km/hNNO16 km/h11.7 1000 hPa8.4 mm
28/09/2022 04:0012.1 °C96 %11.7 °C2 km/hNO18 km/h12.2 1000 hPa8.2 mm
28/09/2022 03:4912.1 °C96 %11.7 °C3 km/hNO10 km/h12.2 1000 hPa8 mm
28/09/2022 03:4512.2 °C96 %11.7 °C2 km/hNNO18 km/h12.2 1000 hPa8 mm
28/09/2022 03:3412.3 °C96 %11.7 °C3 km/hNO10 km/h12.2 1000 hPa7.8 mm
28/09/2022 03:3012.4 °C96 %11.7 °C3 km/hO18 km/h12.2 1000 hPa7.6 mm
28/09/2022 03:2012.6 °C96 %12.2 °C3 km/hNO16 km/h12.8 1000 hPa7.4 mm
28/09/2022 03:1512.8 °C96 %12.2 °C3 km/hNNO18 km/h12.8 1000 hPa7.2 mm
28/09/2022 03:0613.1 °C96 %12.8 °C2 km/hNO6 km/h13.3 1000 hPa7 mm
28/09/2022 03:0113.1 °C96 %12.8 °C2 km/hNO18 km/h13.3 1000 hPa7 mm
28/09/2022 02:5513.2 °C96 %12.8 °C3 km/hONO8 km/h13.3 1000 hPa6.6 mm
28/09/2022 02:4613.2 °C96 %12.8 °C3 km/hNNO18 km/h13.3 1000 hPa6.4 mm
28/09/2022 02:4013.3 °C96 %12.8 °C3 km/hNO8 km/h13.3 1000 hPa6 mm
28/09/2022 02:3113.4 °C96 %12.8 °C6 km/hONO18 km/h13.3 1000 hPa5.6 mm
28/09/2022 02:2513.4 °C96 %12.8 °C2 km/hONO8 km/h13.3 1000 hPa5.2 mm
28/09/2022 02:1613.4 °C96 %12.8 °C2 km/hO18 km/h13.3 1000 hPa4.8 mm
28/09/2022 02:1013.4 °C96 %12.8 °C2 km/hSO10 km/h13.3 1000 hPa4.6 mm
28/09/2022 02:0113.6 °C96 %12.8 °C6 km/hOSO18 km/h13.3 1000 hPa4.2 mm
28/09/2022 01:5513.6 °C96 %12.8 °C3 km/hO13 km/h13.3 1000 hPa4 mm
28/09/2022 01:4613.6 °C96 %12.8 °C2 km/hSO18 km/h13.3 1000 hPa3.4 mm
28/09/2022 01:3513.6 °C96 %12.8 °C-ONO10 km/h13.9 1000 hPa3 mm
28/09/2022 01:3113.6 °C96 %12.8 °C2 km/hSO18 km/h13.9 1001 hPa2.8 mm
28/09/2022 01:2013.7 °C96 %13.3 °C3 km/hNO13 km/h13.9 1001 hPa2.4 mm
28/09/2022 01:1613.8 °C96 %13.3 °C5 km/hONO18 km/h13.9 1001 hPa2.2 mm
28/09/2022 01:0413.9 °C96 %13.3 °C-E13 km/h13.9 1001 hPa1.8 mm
28/09/2022 01:0013.9 °C96 %13.3 °C8 km/hNO18 km/h13.3 1001 hPa1.6 mm
28/09/2022 00:4914.0 °C96 %13.3 °C2 km/hSO8 km/h13.9 1001 hPa1.2 mm
28/09/2022 00:4514.1 °C96 %13.3 °C5 km/hO11 km/h13.9 1001 hPa1 mm
28/09/2022 00:4014.1 °C96 %13.3 °C3 km/hNO11 km/h13.9 1001 hPa1 mm
28/09/2022 00:3114.1 °C96 %13.3 °C3 km/hS10 km/h13.9 1001 hPa0.6 mm
28/09/2022 00:2814.1 °C96 %13.3 °C5 km/hONO8 km/h13.9 1001 hPa0.6 mm
28/09/2022 00:1614.1 °C96 %13.3 °C-OSO6 km/h13.9 1001 hPa0.2 mm
28/09/2022 00:1214.0 °C96 %13.3 °C2 km/hOSO6 km/h13.9 1001 hPa0.2 mm
28/09/2022 00:0114.0 °C96 %13.3 °C2 km/hO6 km/h13.9 1001 hPa-


Minima :

Température : 11.2 °C
Humidité : 96 %
Point de rosée : 10.6 °C
Vent moyen : 2 km/h
Windchill : 11.1
Pression atm. : 999 hPa
Maxima :

Température : 14.1 °C
Humidité : 97 %
Point de rosée : 13.3 °C
Vent moyen : 8 km/h
Windchill : 13.9
Pression atm. : 1001 hPa
Rafales max : 18 km/h
Cumul de pluie sur 24H : 13.6 mm

Yvoy-le-Marron est une commune du département Loir-et-Cher (41).
La station météorologique du réseau de l'association la plus proche de Yvoy-le-Marron est celle de Olivet



Icône Facebook Association Météo Centre Icône Twitter Association Météo Centre Icône Chaîne Youtube Association Météo Centre Icône contact Association Météo Centre Icône Insta Association Météo Centre